Regional Weather Roundup
Issued by NWS

Home | Current Version | Previous Version | Text Only | Print | Product List | Glossary On
Versions: 1 2 3 4 5 6 7 8 9 10 11 12 13 14 15 16 17 18 19 20 21 22 23 24 25 26 27 28 29 30 31 32 33 34 35 36 37 38 39 40 41 42 43 44 45 46 47 48 49 50
000
ASUS43 KFSD 101910
RWRSD

WEATHER ROUNDUP FOR SOUTH DAKOTA
NATIONAL WEATHER SERVICE SIOUX FALLS SD
200 PM CDT THU JUL 10 2014

NOTE: "FAIR" INDICATES FEW OR NO CLOUDS BELOW 12,000 FEET WITH NO
SIGNIFICANT WEATHER AND/OR OBSTRUCTIONS TO VISIBILITY.


SDZ001>005-009-010-012>017-102000-
NORTHWEST AND NORTH CENTRAL SOUTH DAKOTA

CITY           SKY/WX    TMP DP  RH WIND       PRES   REMARKS
BUFFALO          N/A     81  64  56 S6        29.79F
FAITH            N/A     74  62  66 S7        29.85F
MOBRIDGE       PTSUNNY   74  66  76 S9        29.83F
$$

SDZ012>016-024>037-041>051-057-063-072>074-102000-
SOUTHWEST AND SOUTH CENTRAL SOUTH DAKOTA

CITY           SKY/WX    TMP DP  RH WIND       PRES   REMARKS
RAPID CTY ARPT SUNNY     82  63  52 NW8       29.89S
PIERRE         CLOUDY    80  67  64 VRB7      29.83F
CUSTER         MOSUNNY   79  62  56 NE9       30.03R
ELLSWORTH AFB  MOSUNNY   81  61  50 NW5       29.88F
PHILIP         SUNNY     83  65  54 S7        29.83F
PINE RIDGE     SUNNY     85  63  47 SW9       29.87F
WINNER         FAIR      84  66  54 S18       29.87F
$$

SDZ004>011-016>023-039-040-102000-
NORTHEAST SOUTH DAKOTA

CITY           SKY/WX    TMP DP  RH WIND       PRES   REMARKS
ABERDEEN       CLOUDY    76  64  66 S12       29.87S
WATERTOWN      CLOUDY    78  62  57 S16G26    29.94R
SISSETON         N/A     80  65  59 S15G22    29.88F
$$

SDZ017-020-022-023-036>040-048>070-102000-
SOUTHEAST SOUTH DAKOTA

CITY           SKY/WX    TMP DP  RH WIND       PRES   REMARKS
SIOUX FALLS    PTSUNNY   84  61  45 S18G25    29.95S
HURON          LGT RAIN  79  64  60 SE8       29.88F
CHAMBERLAIN    CLOUDY    80  66  61 S13       29.87S
MITCHELL       PTSUNNY   82  65  56 S16       29.90F
YANKTON        SUNNY     82  64  54 S17G26    29.93F
$$

ABBREVIATIONS USED IN REMARKS
   TC - TEMPERATURE IN CELSIUS
  WCI - WIND CHILL INDEX
   HX - HEAT INDEX
  VSB - VISIBILITY




USA.gov is the U.S. government's official web portal to all federal, state and local government web resources and services.